Lapse_Rate
5.8 5.6 5.6 5.7 5.7 5.8 5.9 6.1 6.3 6.4 6.5 6.6 6.7 6.9 7.0 7.1 7.0 6.8 6.8 6.8 6.8 6.8 6.7 6.9 7.0 7.1 6.9 6.6 6.4 6.2 6.2 6.0 5.9 5.9 5.9 5.9 5.9 6.0 5.9 6.0 6.0 6.0 6.1
5.9 5.7 5.6 5.5 5.6 5.8 5.9 6.0 6.1 6.3 6.4 6.7 6.9 7.1 7.2 7.3 7.3 7.2 7.2 7.0 6.8 6.9 6.9 6.9 7.0 6.6 6.6 6.4 6.3 6.2 6.1 6.0 5.9 5.9 6.0 5.9 5.9 5.9 6.1 6.2 6.3 6.3 6.3
5.9 5.8 5.6 5.6 5.7 5.7 5.8 5.9 6.1 6.4 6.5 6.8 7.1 7.3 7.4 7.4 7.3 7.2 7.1 7.0 7.0 7.1 7.2 7.1 6.8 6.8 6.6 6.5 6.1 6.0 6.1 6.0 5.9 5.9 5.9 6.1 6.1 6.1 6.4 6.5 6.4 6.4 6.3
6.1 5.9 5.7 5.7 5.8 5.8 5.9 5.9 6.1 6.5 6.7 6.9 7.3 7.6 7.6 7.5 7.4 7.2 7.3 7.2 7.2 7.2 7.1 7.0 6.7 6.9 6.6 6.3 6.1 5.8 5.9 6.0 6.1 6.2 6.1 6.2 6.2 6.2 6.3 6.4 6.3 6.4 6.3
6.0 5.9 5.8 5.9 5.9 5.9 6.0 6.1 6.1 6.3 6.5 6.8 7.2 7.5 7.6 7.5 7.4 7.5 7.5 7.4 7.2 7.4 7.4 7.2 7.0 6.7 6.7 6.6 6.5 6.4 6.5 6.5 6.5 6.4 6.2 6.2 6.3 6.4 6.4 6.4 6.4 6.4 6.3
6.0 5.9 5.9 5.9 5.9 6.0 6.1 6.1 6.2 6.3 6.4 6.7 7.0 7.3 7.4 7.4 7.5 7.7 7.5 7.5 7.4 7.3 7.2 7.1 7.2 6.9 6.7 6.7 6.7 6.7 6.6 6.6 6.4 6.4 6.5 6.6 6.6 6.5 6.6 6.5 6.5 6.5 6.4
6.2 6.0 5.9 5.9 5.9 6.0 6.2 6.3 6.3 6.4 6.5 6.7 7.0 7.1 7.3 7.4 7.4 7.4 7.5 7.5 7.3 7.3 7.0 6.9 6.8 6.8 6.8 6.9 7.0 6.9 6.8 6.7 6.7 6.7 6.9 6.8 6.7 6.8 6.8 6.6 6.7 6.6 6.6
6.2 6.1 6.0 6.0 6.0 6.1 6.2 6.2 6.4 6.5 6.7 6.7 6.9 7.1 7.2 7.2 7.2 7.3 7.3 7.2 7.2 7.0 7.0 7.1 7.1 7.0 7.0 6.9 7.0 7.0 7.0 6.9 7.0 6.9 6.9 6.9 7.0 7.1 7.0 7.0 7.0 6.8 6.7
6.3 6.2 6.1 6.2 6.1 6.2 6.2 6.3 6.5 6.6 6.7 6.8 6.9 7.0 7.0 7.1 7.0 7.0 7.0 7.0 7.2 7.3 7.3 7.3 7.3 7.2 7.2 7.1 7.1 7.2 7.2 7.1 7.1 7.1 7.2 7.2 7.2 7.1 7.1 7.0 6.9 6.8 6.7
6.3 6.3 6.4 6.4 6.3 6.3 6.3 6.3 6.5 6.7 6.8 6.9 7.0 7.0 7.1 7.2 7.2 7.2 7.2 7.2 7.3 7.3 7.4 7.4 7.4 7.4 7.3 7.3 7.3 7.3 7.4 7.4 7.4 7.3 7.2 7.2 7.2 7.2 7.2 7.1 7.0 6.9 6.8
6.4 6.2 6.3 6.3 6.2 6.2 6.3 6.3 6.4 6.6 6.8 6.9 7.1 7.2 7.3 7.2 7.2 7.3 7.3 7.3 7.3 7.3 7.4 7.4 7.5 7.4 7.4 7.4 7.4 7.4 7.3 7.3 7.3 7.3 7.4 7.4 7.4 7.3 7.1 7.0 6.9 6.8 6.8
6.8 6.5 6.3 6.4 6.2 6.2 6.3 6.3 6.3 6.6 6.8 6.9 7.1 7.1 7.1 7.1 7.2 7.3 7.3 7.3 7.4 7.4 7.5 7.6 7.6 7.5 7.4 7.3 7.3 7.4 7.4 7.5 7.5 7.5 7.4 7.3 7.2 7.1 6.9 6.8 6.8 6.8 6.7
6.9 6.8 6.7 6.6 6.5 6.5 6.4 6.4 6.3 6.6 6.8 6.9 6.9 7.0 7.1 7.2 7.3 7.3 7.4 7.4 7.5 7.5 7.6 7.6 7.7 7.7 7.7 7.7 7.7 7.5 7.4 7.4 7.4 7.3 7.1 7.1 7.0 7.0 6.9 6.9 6.8 6.8 6.7
6.8 6.8 6.8 6.8 6.7 6.7 6.7 6.5 6.5 6.6 6.8 7.0 7.1 7.1 7.3 7.3 7.4 7.5 7.5 7.5 7.6 7.6 7.5 7.5 7.6 7.6 7.6 7.6 7.6 7.5 7.4 7.3 7.2 7.2 7.1 7.0 6.9 6.9 6.9 6.9 6.9 6.9 6.8
6.8 6.8 6.8 6.8 6.9 6.9 6.8 6.8 6.7 6.7 6.8 7.0 7.2 7.3 7.4 7.3 7.2 7.3 7.3 7.3 7.3 7.4 7.4 7.4 7.5 7.5 7.5 7.5 7.5 7.5 7.4 7.3 7.2 7.1 7.0 7.0 7.0 7.0 6.9 6.9 6.9 6.8 6.7
6.8 6.7 6.7 6.8 6.8 6.9 7.0 6.9 6.8 6.8 6.9 6.9 7.0 7.1 7.1 7.1 7.0 7.1 7.2 7.2 7.3 7.3 7.4 7.4 7.5 7.5 7.4 7.5 7.5 7.4 7.3 7.2 7.1 7.1 7.0 6.9 6.9 6.8 6.7 6.7 6.7 6.7 6.6
6.7 6.7 6.7 6.7 6.7 6.9 6.9 6.9 6.9 6.8 6.9 6.9 6.9 6.9 7.0 7.1 7.1 7.2 7.2 7.2 7.3 7.4 7.4 7.4 7.4 7.4 7.4 7.4 7.4 7.3 7.2 7.1 7.1 7.0 6.9 6.8 6.7 6.7 6.6 6.4 6.3 6.2 6.2
6.7 6.6 6.7 6.7 6.7 6.7 6.8 6.8 6.9 6.9 6.9 6.9 6.9 6.9 6.9 7.0 7.0 7.1 7.1 7.1 7.2 7.2 7.3 7.3 7.3 7.3 7.3 7.3 7.2 7.1 7.0 6.9 6.9 6.8 6.7 6.6 6.4 6.2 6.2 6.1 6.1 6.1 6.2
6.7 6.8 6.8 6.8 6.9 6.8 6.7 6.7 6.8 6.8 6.9 6.9 6.9 6.9 7.0 7.1 7.0 7.0 7.0 7.1 7.2 7.2 7.2 7.2 7.2 7.2 7.0 7.0 7.0 6.9 6.8 6.7 6.6 6.5 6.3 6.1 6.1 6.1 6.0 6.0 5.9 5.9 5.9
6.9 6.9 6.9 6.9 6.9 6.8 6.9 6.8 6.7 6.7 6.8 6.8 6.8 6.9 6.9 6.9 6.9 6.9 7.0 7.1 7.1 7.1 7.1 7.0 7.0 7.0 6.9 6.8 6.8 6.7 6.5 6.3 6.2 6.1 6.1 5.9 5.8 5.8 5.7 5.8 5.8 5.9 6.0
7.1 7.1 7.0 7.0 7.0 7.0 6.9 6.9 6.8 6.8 6.6 6.6 6.7 6.8 6.8 6.8 6.8 6.9 6.9 6.9 6.9 7.0 6.9 6.9 6.8 6.8 6.7 6.5 6.5 6.3 6.3 6.2 6.2 6.1 5.9 5.8 5.7 5.7 5.8 5.8 5.9 6.0 6.1
7.2 7.1 7.1 7.0 7.1 7.1 7.0 6.9 6.8 6.8 6.7 6.7 6.8 6.9 6.8 6.7 6.8 6.8 6.8 6.8 6.8 6.8 6.8 6.8 6.7 6.7 6.5 6.4 6.3 6.3 6.2 6.1 6.0 5.9 5.8 5.8 5.8 5.9 5.9 6.0 6.0 6.1 6.2
7.3 7.3 7.2 7.0 7.1 7.1 7.0 7.1 7.1 7.1 7.0 6.9 6.8 6.7 6.6 6.6 6.6 6.7 6.7 6.7 6.7 6.6 6.6 6.5 6.5 6.4 6.3 6.2 6.1 6.0 5.8 5.8 5.7 5.7 5.8 5.8 5.9 5.9 6.0 6.1 6.1 6.3 6.3
7.3 7.2 7.1 7.1 7.1 7.0 7.0 7.3 7.3 7.1 6.9 6.6 6.5 6.4 6.4 6.4 6.4 6.5 6.6 6.6 6.5 6.5 6.5 6.4 6.3 6.1 6.1 6.1 6.0 5.8 5.8 5.7 5.6 5.7 5.7 5.8 6.0 6.1 6.2 6.2 6.2 6.4 6.5
7.2 7.2 7.2 7.1 7.0 7.1 7.1 7.2 7.2 7.1 6.9 6.7 6.7 6.6 6.5 6.4 6.4 6.4 6.3 6.4 6.3 6.4 6.3 6.1 5.9 5.9 5.9 5.8 5.7 5.6 5.6 5.5 5.5 5.5 5.9 6.1 6.1 6.2 6.3 6.4 6.5 6.5 6.7
7.0 7.0 7.2 7.3 7.3 7.2 7.1 7.0 7.1 7.0 6.8 6.7 6.7 6.4 6.3 6.3 6.3 6.2 6.2 6.2 6.2 6.0 5.9 5.7 5.6 5.6 5.6 5.6 5.5 5.4 5.4 5.3 5.3 5.3 5.4 5.8 6.4 6.7 6.8 6.6 6.7 6.8 6.9
Wind_Speed
4 9 13 14 15 16 18 18 19 19 20 21 22 22 22 23 23 21 21 20 20 21 23 22 22 21 21 23 23 23 22 22 22 22 22 21 22 23 23 23 21 21 23
8 12 14 16 17 18 19 19 18 19 20 21 21 23 23 23 22 22 21 20 19 20 22 22 20 19 19 19 21 21 21 22 22 21 22 20 21 22 22 22 21 21 22
9 13 15 18 18 20 20 19 18 19 20 19 21 22 21 21 21 21 21 20 19 21 21 20 19 21 21 21 20 22 22 22 21 20 19 17 18 20 21 21 21 21 20
13 12 15 19 20 21 20 20 20 19 19 18 20 20 20 20 20 20 20 20 20 20 20 22 23 22 22 22 21 22 21 21 19 21 17 18 18 21 21 21 20 19 19
11 13 16 20 19 21 20 19 20 19 19 19 18 18 18 18 18 18 19 19 19 19 19 21 21 20 20 20 20 20 20 19 22 21 21 19 15 17 18 18 18 18 18
11 15 16 18 19 19 19 19 19 19 18 18 17 16 17 17 17 17 17 18 17 18 19 20 20 20 19 20 18 18 18 18 21 19 18 16 15 17 17 17 17 16 16
9 14 16 18 19 18 19 18 17 18 18 17 16 16 16 16 16 16 17 17 17 18 19 19 20 20 19 17 17 17 16 19 19 18 18 18 14 14 15 14 14 13 13
9 12 16 19 18 18 18 18 17 17 17 16 16 15 15 15 14 15 16 16 18 18 18 18 18 18 16 14 13 14 15 16 17 15 14 14 13 14 13 13 14 13 12
10 11 12 15 17 20 19 17 16 16 16 17 16 14 15 14 14 14 15 16 17 17 18 17 17 17 16 13 13 14 13 13 14 12 12 13 13 13 13 14 13 12 12
6 10 10 12 14 17 17 16 16 14 17 19 16 15 14 14 14 14 15 15 15 16 16 16 15 15 16 17 15 13 12 13 12 11 11 11 12 13 13 13 12 11 12
9 9 10 10 12 14 15 15 16 15 18 17 16 14 13 12 12 13 14 15 15 14 15 15 15 15 16 16 12 11 10 9 9 10 9 9 10 11 11 11 11 11 11
12 10 8 10 10 13 11 14 14 15 16 15 14 11 11 10 10 12 13 13 13 12 13 13 13 14 13 12 12 10 8 7 8 7 8 9 10 10 10 10 11 10 10
12 7 9 8 11 11 10 12 12 13 13 13 11 10 10 9 9 9 9 9 10 12 12 13 14 13 13 11 10 10 8 7 5 5 6 8 10 11 10 9 10 10 10
11 12 10 12 9 10 11 11 12 11 12 10 10 7 9 8 7 6 6 7 8 8 10 10 9 8 10 10 9 8 8 7 7 5 6 7 8 9 9 9 9 10 11
14 12 10 11 8 9 9 10 10 10 11 10 7 6 8 8 6 5 5 7 8 7 7 7 8 9 9 9 9 9 8 7 7 7 6 6 6 7 9 10 10 11 12
11 10 8 10 10 11 8 10 9 11 12 10 8 9 7 8 8 8 8 7 6 7 7 7 7 6 6 6 6 7 6 5 5 5 5 7 9 8 9 10 10 11 13
10 10 10 9 11 11 10 11 11 12 11 10 10 10 9 9 11 9 8 5 6 6 7 6 6 7 6 7 5 7 7 8 7 7 9 10 11 12 12 13 13 13 14
10 11 11 9 9 8 9 9 9 11 11 10 11 10 11 10 10 8 7 6 6 6 6 6 5 3 3 4 3 4 7 6 6 7 9 11 13 15 15 15 15 15 15
11 11 10 8 10 8 7 8 9 10 9 11 12 9 9 8 10 10 9 6 6 6 6 4 4 3 3 4 4 4 5 5 7 9 12 15 17 17 17 16 16 16 16
11 11 11 7 8 7 6 6 5 5 5 11 11 11 9 10 11 12 10 7 7 6 3 3 4 4 2 3 2 4 4 6 10 9 10 13 16 16 16 17 18 18 17
9 10 11 10 7 6 3 4 3 4 2 1 7 10 12 10 11 12 9 7 6 3 3 3 2 4 5 4 2 3 3 3 5 5 10 9 13 15 16 15 17 19 19
12 11 10 11 9 7 6 3 3 3 2 2 4 5 6 12 13 12 10 6 6 3 4 4 4 2 3 5 2 2 3 3 3 3 4 5 7 10 14 14 21 18 18
12 13 12 11 10 8 7 5 4 5 4 2 2 2 3 12 14 13 10 9 7 6 3 2 3 3 2 3 6 3 2 1 3 2 1 2 5 6 11 10 17 18 19
13 11 12 10 10 7 9 7 8 5 4 3 4 3 5 10 13 12 11 10 9 8 4 3 3 2 2 2 2 4 4 2 2 4 2 3 4 5 5 10 13 16 19
12 12 11 10 10 8 9 9 8 5 4 3 3 6 5 7 11 11 12 12 9 8 6 5 4 4 3 3 2 2 4 4 3 2 4 4 3 3 4 10 8 12 16
7 10 11 12 11 10 10 9 10 10 7 6 5 5 4 3 5 9 11 11 10 9 7 7 7 6 5 5 3 4 2 2 2 2 2 3 4 3 2 4 4 8 12
Wind_Direction
177 176 149 136 128 119 113 109 103 101 101 98 101 97 96 91 86 84 81 78 83 90 85 81 80 79 80 79 78 75 72 71 71 70 67 68 73 74 73 71 66 67 67
142 153 148 138 130 117 115 110 107 106 102 96 96 97 92 91 91 87 85 89 86 88 83 78 76 79 81 84 79 75 73 71 70 66 66 65 73 73 74 75 71 69 68
137 148 137 134 125 118 114 110 103 100 99 99 96 94 94 94 92 90 89 86 84 83 82 73 75 84 81 87 84 80 78 76 73 68 66 67 67 74 74 70 69 69 66
135 133 133 133 125 121 117 113 108 107 107 102 100 96 97 93 90 88 87 88 87 86 80 73 79 83 84 85 82 82 81 77 73 72 65 59 59 59 59 60 64 63 64
129 127 136 129 124 123 122 117 114 108 109 107 103 95 97 93 90 86 83 82 82 84 83 79 82 84 83 82 83 84 82 76 73 65 62 62 63 63 65 66 62 58 54
127 133 138 131 129 128 127 120 117 116 115 112 109 105 99 93 90 86 83 84 83 82 81 79 82 82 86 84 85 84 82 79 75 68 63 65 64 63 62 59 59 57 55
121 134 137 133 131 129 123 122 121 119 118 115 110 107 101 94 87 84 82 80 81 81 79 77 77 77 77 80 85 87 84 84 79 68 62 59 61 61 59 55 52 48 47
126 128 134 134 135 133 127 126 128 125 122 118 112 103 99 97 92 85 82 81 78 77 77 76 75 70 66 77 94 91 85 80 75 71 66 59 58 57 55 53 50 47 45
116 120 126 135 144 137 135 134 132 129 125 116 109 106 97 90 87 82 77 75 75 76 75 74 73 66 64 75 100 93 85 80 75 68 64 58 55 54 50 48 47 48 46
113 122 123 133 138 133 134 138 131 128 118 110 107 103 97 90 82 77 74 70 71 73 70 65 65 64 64 73 90 92 84 73 66 63 58 55 52 48 45 44 43 42 39
142 138 125 127 128 130 134 134 130 116 115 113 112 108 99 94 91 86 80 75 66 60 61 66 67 71 72 73 81 81 78 66 63 54 48 44 46 45 43 43 41 38 38
159 152 141 132 130 128 124 134 129 126 124 122 119 106 102 99 95 89 78 74 64 64 65 61 66 69 69 65 63 66 63 61 60 52 43 36 37 36 37 38 36 34 32
162 161 154 139 139 131 129 134 131 133 130 131 129 115 104 97 86 78 74 65 70 70 72 65 59 54 57 64 62 61 58 52 39 33 32 31 31 28 29 30 28 24 19
166 169 158 158 144 139 139 141 144 141 144 144 144 138 126 111 97 83 78 75 86 77 71 60 60 58 49 49 54 49 43 40 36 27 17 22 23 22 24 23 18 15 11
171 172 165 162 157 150 144 146 151 157 157 156 158 155 153 137 132 109 100 95 83 72 68 65 58 52 48 38 40 45 36 29 30 26 15 10 6 5 12 13 13 10 5
168 168 164 171 171 159 159 161 169 170 167 166 178 174 161 156 146 131 120 109 90 79 73 74 62 56 49 40 33 28 30 31 27 19 16 14 14 9 5 3 2 1 1
172 164 173 178 178 172 173 174 171 178 171 173 180 181 172 155 147 149 133 113 100 90 85 66 55 52 39 21 24 10 3 2 12 23 30 30 28 30 26 19 13 5 357
160 168 179 188 184 173 166 174 161 167 168 162 173 180 166 164 161 150 130 122 118 95 83 66 40 37 28 24 353 359 7 16 39 58 64 58 53 47 45 39 34 25 16
171 172 181 175 171 164 159 158 159 167 170 165 170 163 165 157 149 144 133 123 118 98 74 71 51 59 29 359 350 26 25 42 54 73 70 72 63 56 52 45 38 34 24
173 173 177 172 167 158 146 116 113 116 140 166 162 177 167 152 133 130 121 123 112 93 70 61 72 54 54 346 19 56 54 45 62 70 79 77 53 49 43 34 28 22 14
173 170 177 168 169 149 127 133 136 140 149 151 179 182 171 166 143 131 126 120 102 87 79 55 82 54 16 356 58 20 6 33 49 60 71 61 42 39 33 27 23 10 12
179 183 181 182 168 175 156 143 140 139 139 140 167 173 199 152 145 141 136 124 110 99 71 54 51 76 43 12 85 90 24 340 15 45 47 31 26 28 25 17 5 15 14
185 186 184 183 175 175 149 118 83 83 76 93 76 84 124 149 146 144 134 123 107 101 96 84 71 85 110 26 41 111 58 336 326 326 333 16 4 19 6 1 358 6 11
192 187 185 179 176 167 158 154 155 153 151 173 161 143 113 139 133 133 130 123 116 116 106 98 84 80 102 67 30 42 62 116 77 336 331 334 355 354 348 346 357 9 19
179 183 185 178 174 167 173 168 160 152 140 139 113 120 116 113 126 133 134 127 119 114 106 104 86 79 70 91 75 45 52 52 60 95 292 320 351 326 332 333 345 13 23
167 177 177 177 180 170 174 168 167 159 148 136 130 133 133 116 115 127 130 126 123 118 119 110 100 85 85 81 73 59 74 73 41 31 313 303 285 292 303 284 21 27 20